NX59T K2M2-KIWS

Flight info

Callsign NX59T
Flight time N/A
Altitude 25000
Route BEATS SWB WAPPL6
Aircraft C750/M-SBDE3FGHRWXY/S

Departure

Time 2026-05-06 13:39
Airport Lawrenceburg Lawrence County Airport (K2M2)

Arrival

Time N/A
Airport West Houston Airport (KIWS)
Time Latitude Longitude Altitude Speed Heading
2026-05-06 13:20 35.23431 -87.25938 930 ft 0 kts 257°
2026-05-06 13:34 35.23430 -87.25939 930 ft 0 kts 219°
2026-05-06 13:35 35.23427 -87.25938 930 ft 0 kts 130°
2026-05-06 13:35 35.23416 -87.25907 930 ft 6 kts 92°
2026-05-06 13:35 35.23452 -87.25884 930 ft 7 kts 353°
2026-05-06 13:35 35.23510 -87.25898 931 ft 9 kts 346°
2026-05-06 13:36 35.23585 -87.25921 933 ft 12 kts 345°
2026-05-06 13:36 35.23680 -87.25948 933 ft 15 kts 346°
2026-05-06 13:36 35.23798 -87.25985 934 ft 19 kts 347°
2026-05-06 13:36 35.23938 -87.26022 935 ft 21 kts 343°
2026-05-06 13:37 35.24060 -87.26060 936 ft 12 kts 359°
2026-05-06 13:37 35.24092 -87.26002 936 ft 7 kts 90°
2026-05-06 13:37 35.24074 -87.25977 935 ft 0 kts 164°
2026-05-06 13:39 35.23871 -87.25923 933 ft 64 kts 166°
2026-05-06 13:39 35.23183 -87.25713 928 ft 137 kts 166°
2026-05-06 13:39 35.22194 -87.25447 1364 ft 143 kts 183°
2026-05-06 13:39 35.21277 -87.25956 1843 ft 160 kts 220°
2026-05-06 13:40 35.20540 -87.26981 2537 ft 168 kts 239°
2026-05-06 13:40 35.19962 -87.28254 3247 ft 180 kts 237°
2026-05-06 13:40 35.19058 -87.29405 3921 ft 198 kts 223°
2026-05-06 13:40 35.17924 -87.30441 4597 ft 214 kts 218°
2026-05-06 13:41 35.16635 -87.31465 5277 ft 230 kts 217°
2026-05-06 13:41 35.15235 -87.32524 5961 ft 243 kts 217°
2026-05-06 13:41 35.13757 -87.33628 6620 ft 256 kts 217°
2026-05-06 13:41 35.12213 -87.34771 7258 ft 267 kts 216°
2026-05-06 13:42 35.10603 -87.35960 7905 ft 276 kts 217°
2026-05-06 13:42 35.08939 -87.37186 8536 ft 285 kts 217°
2026-05-06 13:42 35.07247 -87.38434 9168 ft 292 kts 217°
2026-05-06 13:42 35.05493 -87.39727 9797 ft 297 kts 217°
2026-05-06 13:43 35.03716 -87.41032 10442 ft 302 kts 217°
2026-05-06 13:43 35.01897 -87.42368 11069 ft 305 kts 218°
2026-05-06 13:43 35.00077 -87.43707 11694 ft 307 kts 218°
2026-05-06 13:43 34.98263 -87.45041 12310 ft 308 kts 218°
2026-05-06 13:44 34.96429 -87.46388 12931 ft 309 kts 218°
2026-05-06 13:44 34.94605 -87.47726 13542 ft 308 kts 218°
2026-05-06 13:44 34.92750 -87.49087 14158 ft 308 kts 219°
2026-05-06 13:44 34.90950 -87.50412 14759 ft 307 kts 218°
2026-05-06 13:45 34.89116 -87.51754 15353 ft 305 kts 219°
2026-05-06 13:45 34.85509 -87.54397 16591 ft 300 kts 219°
2026-05-06 13:45 34.83742 -87.55688 17179 ft 298 kts 219°
2026-05-06 13:46 34.81984 -87.56967 17772 ft 294 kts 220°
2026-05-06 13:46 34.80255 -87.58237 18352 ft 290 kts 220°
2026-05-06 13:46 34.78527 -87.59498 18957 ft 286 kts 220°
2026-05-06 13:46 34.77968 -87.59902 19126 ft 285 kts 220°